Theta_e
337 337 336 336 336 335 336 335 335 335 333 334 334 334 334 334 334 333 332 331 333 334 335 335 336 337 338 339 339 338 337 337 336 335 334 333 331 329 327 327 326 326 325 324 320 315 311 311 313 313 311 310 311 310 308 309 314 314 311 314 317 317 310 304 308 310 311 312 313 314 310 309 313 314 314 312 311 313 312 312 313 312 313 312 312
337 337 336 336 336 335 336 336 336 335 333 334 336 335 334 334 334 332 332 332 332 335 336 335 337 338 339 339 338 337 337 336 335 334 332 331 330 326 323 322 321 321 320 319 317 315 316 317 317 316 314 313 313 312 311 312 315 313 308 311 314 316 313 308 308 310 311 312 312 313 311 309 312 313 314 313 311 312 312 312 312 312 312 312 312
336 336 336 336 335 335 335 334 334 332 332 335 335 335 335 335 334 333 332 332 332 335 337 337 338 339 338 338 337 337 336 334 332 332 331 329 328 326 321 318 317 317 316 315 316 319 321 321 320 318 316 316 316 315 315 315 315 313 309 308 310 313 314 312 311 310 311 312 312 312 312 310 310 311 313 313 311 311 312 312 312 312 311 311 311
335 335 335 335 334 334 334 333 333 331 332 335 335 335 337 336 336 336 335 334 335 337 338 339 339 338 337 337 337 336 334 331 329 329 330 329 327 327 324 321 316 313 312 312 315 319 321 320 320 319 318 317 317 317 317 316 316 315 313 310 310 312 314 314 313 313 312 312 312 312 312 312 310 310 310 313 312 311 311 311 312 312 311 311 311
335 336 336 336 335 334 334 333 333 332 333 336 337 337 337 337 338 338 338 338 339 340 339 339 339 338 337 337 336 334 331 328 326 328 329 329 327 326 325 324 320 316 314 315 318 320 320 320 319 319 318 318 317 317 317 316 316 315 315 313 312 313 314 314 313 313 313 312 312 312 312 312 312 311 310 311 311 311 312 311 311 312 311 311 311
337 339 339 339 338 337 337 337 337 336 336 337 338 338 337 338 339 340 340 340 340 340 339 339 338 338 337 336 334 331 329 328 327 328 328 327 326 324 322 322 322 320 318 318 320 320 319 319 319 318 317 317 316 316 316 316 315 314 314 313 313 313 313 313 313 313 313 313 312 312 312 311 311 312 311 311 310 311 312 311 310 311 311 311 310
340 341 340 340 340 339 340 340 340 339 339 339 339 340 339 340 340 340 340 339 339 339 338 338 338 337 337 335 332 330 328 328 327 327 327 325 323 321 320 319 319 320 319 318 318 319 319 318 317 317 316 316 316 316 315 315 315 314 313 313 312 313 312 313 312 312 312 312 312 312 311 311 311 311 311 311 311 310 311 311 310 310 311 310 310
340 341 341 341 340 340 340 341 341 340 340 339 340 340 341 341 340 340 339 339 338 338 338 338 337 337 336 334 331 328 327 327 326 326 325 322 320 319 318 317 316 316 318 318 318 317 316 316 317 317 316 316 316 315 314 314 314 313 312 311 311 311 311 311 312 312 312 311 312 312 311 310 310 311 311 311 311 310 310 311 311 310 311 310 310
340 340 341 341 341 341 340 341 340 339 339 340 340 340 341 341 340 339 339 339 338 337 338 337 337 336 334 332 330 327 327 327 327 326 324 320 318 318 317 316 313 312 315 317 318 316 314 313 314 314 315 315 314 313 313 313 313 312 311 310 310 310 310 310 311 311 312 312 311 311 311 310 309 310 311 310 311 311 309 310 311 310 311 310 310
339 340 340 340 341 340 340 340 340 339 340 340 340 340 340 340 339 337 338 338 337 337 337 337 336 335 333 330 328 327 327 326 326 325 322 318 317 317 316 314 311 312 314 315 316 316 314 309 307 309 310 311 313 312 311 311 311 311 311 310 309 309 310 310 310 311 312 311 310 310 310 310 309 309 309 309 309 309 309 309 311 311 311 310 310
339 340 340 340 341 340 340 339 339 339 340 339 340 340 339 339 338 337 337 337 338 337 337 336 335 333 331 329 327 326 326 326 325 324 320 317 316 316 315 313 311 311 312 312 314 315 315 311 308 308 305 304 308 309 308 308 309 310 310 309 310 309 309 309 310 311 311 310 309 310 310 309 308 308 308 308 308 308 309 310 311 311 311 310 309
339 340 340 340 340 340 339 339 339 340 339 339 340 339 338 338 337 337 336 336 337 337 336 335 333 330 327 326 325 325 325 325 324 322 320 317 316 316 315 312 311 311 310 310 311 311 313 312 311 311 307 301 301 301 302 303 305 307 309 309 310 311 310 310 310 310 310 310 309 309 309 308 307 306 307 307 308 308 308 310 311 310 310 310 309
339 340 340 340 340 340 340 339 339 339 339 339 339 339 337 337 336 336 335 335 335 336 335 333 332 329 327 325 324 323 324 324 323 321 319 318 317 316 315 312 311 311 310 309 308 308 309 310 309 309 308 304 302 301 301 302 303 304 305 305 306 309 310 309 310 309 308 309 308 308 308 307 306 305 306 306 306 307 308 309 310 310 310 309 309
339 339 340 340 340 340 340 340 339 338 339 340 339 338 337 336 336 336 335 335 335 335 333 333 332 331 330 328 326 324 324 324 323 321 319 318 317 317 315 313 311 311 309 308 307 307 307 308 307 307 307 307 306 306 306 306 306 302 301 301 301 306 309 308 308 308 307 308 307 307 307 306 305 305 305 306 306 307 309 309 309 309 309 309 309
339 339 340 340 340 340 340 340 339 338 339 340 339 338 337 336 336 335 335 334 334 334 333 333 332 332 331 330 329 328 326 324 323 321 320 318 317 316 315 313 311 310 309 308 308 307 306 307 307 308 307 308 308 308 307 307 306 302 300 301 300 302 305 306 308 307 306 306 306 306 306 305 305 305 306 306 307 309 309 309 308 308 308 309 309
339 339 339 340 340 340 340 340 339 338 339 340 340 338 337 336 336 335 335 334 334 334 333 333 332 331 331 330 329 328 327 325 323 321 320 318 317 316 315 313 311 310 309 309 309 307 307 307 307 308 307 308 308 308 308 306 305 304 305 305 303 301 301 303 304 303 303 304 304 305 305 305 305 306 306 307 308 309 309 308 308 307 307 308 308
339 339 339 339 340 340 340 340 338 338 338 340 340 338 337 337 335 335 334 334 334 334 333 333 332 331 331 330 329 328 328 326 324 322 319 318 317 316 315 314 312 311 310 309 309 308 307 307 307 308 308 308 308 308 307 307 307 308 310 310 305 300 300 300 300 300 300 301 303 304 304 304 306 306 307 308 309 308 308 307 307 307 307 307 307
340 339 339 339 340 340 340 340 339 338 338 339 340 339 338 337 336 335 334 333 334 333 333 332 331 330 330 331 331 331 330 326 325 324 320 318 317 316 315 314 313 311 310 309 309 308 308 308 308 308 308 308 308 308 307 308 307 308 309 307 302 300 299 299 298 298 297 297 301 304 304 304 306 307 308 308 308 307 307 307 307 307 307 307 308
340 339 339 339 339 339 340 340 339 339 338 338 339 339 338 337 336 335 334 333 333 333 333 332 331 330 330 330 330 330 329 327 327 326 323 320 318 317 316 315 314 312 311 309 309 309 308 308 308 307 308 308 308 308 308 308 308 307 306 302 300 299 299 298 297 296 295 295 299 302 303 304 306 307 307 307 307 306 306 306 306 306 307 307 307
339 339 339 339 339 339 340 340 339 339 339 339 339 339 338 337 336 335 334 333 333 333 332 332 331 330 329 329 329 328 328 328 329 328 326 324 320 318 317 315 315 313 311 310 309 309 309 308 308 308 308 308 308 308 308 308 308 308 306 301 299 299 298 297 296 295 295 295 297 299 300 304 306 306 307 306 306 305 305 305 305 306 307 307 306
339 339 339 339 339 339 340 340 339 339 339 338 338 338 337 337 335 334 334 334 333 332 332 331 331 330 329 328 328 328 328 328 328 328 328 328 324 320 318 317 316 314 313 311 310 310 309 307 308 308 308 308 308 308 308 308 308 307 305 300 299 298 297 296 295 295 295 295 295 296 297 302 305 305 306 305 304 304 304 305 305 306 306 305 305
339 339 339 339 339 339 340 339 339 339 338 337 338 337 336 335 335 334 334 334 333 332 332 332 331 331 331 330 329 329 328 328 328 327 328 328 326 323 321 320 318 316 314 312 310 309 309 308 308 307 308 308 307 308 308 308 306 304 302 299 298 297 296 295 295 295 295 295 296 295 296 300 304 304 304 304 302 303 303 304 305 305 305 304 304
339 339 339 339 339 339 340 340 339 339 338 337 337 337 335 334 334 334 333 333 333 332 332 332 331 331 331 331 330 329 329 328 328 328 327 328 327 325 323 322 320 319 315 312 310 309 309 308 308 307 308 308 307 308 308 307 306 302 300 299 297 296 295 295 295 295 296 295 296 295 295 298 300 301 301 300 299 301 302 303 304 303 302 301 300
339 339 339 339 339 339 339 339 339 339 338 337 336 336 335 334 334 334 333 333 333 333 332 333 332 331 331 330 330 329 329 328 328 328 328 327 327 326 324 322 320 319 315 313 311 310 309 308 307 307 307 307 307 307 307 307 306 302 299 300 298 295 295 296 296 296 296 295 295 295 295 296 296 297 297 296 296 297 299 301 301 299 298 297 296
339 339 339 340 339 339 339 339 339 338 338 337 336 335 335 335 334 333 333 333 333 332 332 332 332 331 331 330 330 329 329 328 328 328 328 327 327 325 323 321 320 318 314 313 311 309 309 308 307 307 307 307 306 306 306 306 306 303 298 300 300 297 296 296 296 296 296 295 296 295 295 295 295 295 295 295 295 296 296 297 297 296 295 295 295
339 339 339 339 339 339 339 339 339 338 337 336 335 335 334 334 333 333 332 331 331 331 331 331 331 331 331 330 330 330 329 328 328 328 327 327 326 324 323 321 321 319 314 312 311 309 309 308 307 306 306 307 306 306 306 305 306 302 296 299 303 301 299 297 296 296 296 296 296 295 295 295 295 295 295 295 295 295 295 295 295 295 295 295 295
340 339 339 339 339 339 339 340 339 337 337 336 335 334 334 333 332 332 331 330 329 329 329 329 330 330 330 330 330 329 329 328 328 328 327 326 324 323 323 321 320 319 316 313 310 310 309 307 306 306 306 306 305 306 305 303 304 300 296 301 304 304 302 298 296 296 296 295 295 295 295 295 295 295 295 295 295 295 295 295 295 295 295 295 296
339 339 339 339 338 339 340 339 338 337 336 335 335 334 333 332 331 330 330 329 328 328 328 328 328 329 328 328 328 327 327 327 326 326 325 324 323 322 323 321 319 318 316 314 311 311 309 307 306 305 306 305 305 305 302 302 303 300 300 304 304 305 303 298 296 296 296 295 295 295 295 295 295 295 295 295 295 295 295 294 295 295 295 296 296
340 339 339 339 338 339 339 338 337 337 336 335 335 333 332 330 329 329 328 327 326 327 327 327 327 327 327 327 326 326 326 325 325 324 323 322 321 320 321 320 318 317 316 314 313 312 310 308 307 306 305 305 305 304 302 304 303 300 302 304 304 304 301 296 296 296 295 295 295 295 295 295 295 295 295 295 295 295 295 295 295 295 295 295 295
340 340 339 338 338 339 339 338 337 336 335 335 333 332 330 329 328 327 327 326 325 325 325 324 325 325 325 325 324 324 323 322 321 320 320 319 318 317 318 317 316 316 316 315 314 314 311 309 309 307 304 303 304 303 303 304 302 299 302 305 304 302 299 297 297 295 295 296 295 296 296 295 295 295 295 295 295 295 295 294 295 295 295 295 296
341 340 339 338 338 338 338 337 336 336 335 334 332 330 328 328 328 327 326 324 324 324 323 322 323 322 322 322 321 321 319 318 317 317 316 316 315 315 315 315 316 316 316 315 315 315 313 310 308 306 304 303 303 303 303 303 302 300 302 305 304 301 300 302 300 297 297 297 296 297 296 295 295 295 295 295 295 295 295 295 295 295 296 296 296
341 340 339 339 338 338 338 336 336 335 334 332 330 329 327 327 327 326 325 323 322 322 321 320 320 320 320 320 319 318 317 315 315 314 314 314 314 313 313 314 315 315 315 315 315 315 313 310 307 305 304 304 303 303 303 303 303 301 302 304 303 302 302 303 302 300 299 297 297 297 296 296 296 296 296 295 295 295 295 295 295 295 296 296 296
341 340 339 339 338 338 337 336 335 334 333 331 329 328 327 326 326 325 323 322 321 321 320 319 318 318 318 318 317 316 315 314 314 312 312 311 311 311 312 312 312 312 313 313 313 315 312 309 307 304 304 304 303 302 302 303 304 303 302 303 303 303 302 303 303 302 299 297 298 297 297 297 296 296 297 296 296 296 296 296 296 296 296 296 296
341 340 339 338 338 337 337 335 334 333 332 330 328 327 326 326 325 323 322 321 320 320 319 317 317 317 317 316 315 315 314 313 312 311 310 309 308 308 308 309 310 311 311 311 312 314 312 308 307 305 303 303 303 303 302 303 303 303 303 303 303 303 303 303 304 303 300 298 298 297 297 297 297 297 297 297 297 297 296 296 296 297 297 297 297
341 340 339 338 337 337 336 335 334 333 331 329 327 326 325 325 323 322 321 320 319 319 318 316 316 316 316 315 315 314 313 312 311 309 309 308 307 307 307 308 309 310 311 310 311 313 311 308 306 305 304 303 303 303 302 303 303 303 303 303 303 303 303 303 304 304 301 298 298 298 298 298 298 298 298 298 298 298 297 297 297 297 298 298 298
340 340 339 337 337 336 335 334 333 332 330 328 327 325 324 324 322 321 320 320 319 318 317 315 315 315 315 315 314 313 312 311 311 309 309 308 306 307 307 307 310 311 311 310 311 310 310 308 305 305 305 304 304 303 302 303 303 303 303 303 303 304 304 303 304 304 301 299 299 299 299 299 299 299 299 299 299 299 298 298 298 299 299 299 298
340 339 338 337 336 335 334 333 332 331 329 327 326 324 323 322 321 321 320 319 318 317 316 315 314 314 314 314 314 312 311 311 310 309 308 307 307 306 305 306 309 309 308 309 309 308 307 307 305 305 305 304 303 303 302 302 303 303 303 303 303 304 304 304 305 304 303 302 302 301 300 300 300 299 299 300 300 300 299 299 299 300 300 299 299
339 338 337 336 335 335 334 333 332 330 328 327 325 324 323 321 320 320 320 319 318 316 315 315 314 314 314 314 313 311 311 311 310 309 308 308 307 306 305 306 305 304 305 307 306 305 306 306 306 305 304 304 304 304 303 302 302 303 303 304 304 304 304 305 305 305 304 304 303 303 302 302 302 301 301 301 302 301 300 300 300 301 301 300 299
339 337 336 335 334 334 333 332 331 330 328 326 324 323 322 321 320 320 319 318 316 315 314 314 313 313 313 313 312 311 310 310 310 309 308 308 307 306 306 306 302 301 304 306 304 305 306 306 305 305 305 305 305 305 304 302 302 303 303 304 304 305 304 304 304 305 304 304 303 303 302 302 303 303 303 303 302 302 301 302 302 302 301 300 299
338 337 336 334 333 333 332 331 330 329 327 325 324 322 321 320 320 320 319 317 316 314 314 313 313 313 312 312 311 310 309 310 309 308 308 307 307 306 306 305 303 302 304 305 304 305 305 305 305 305 305 305 304 304 304 303 304 305 305 303 304 305 305 304 304 305 304 303 302 302 302 303 303 303 303 303 302 302 302 303 303 302 301 300 299
338 337 335 334 333 332 331 330 328 327 325 325 325 324 321 319 320 320 319 317 315 314 313 312 312 312 311 311 310 309 309 309 308 307 307 306 306 306 305 304 304 305 305 304 304 305 304 304 305 305 305 305 305 305 305 304 305 305 304 304 305 305 305 304 305 305 304 303 302 302 302 303 303 303 303 303 302 302 303 303 302 301 300 299 299
337 336 335 333 332 332 330 328 327 325 325 326 328 326 322 319 320 320 318 316 314 313 313 312 312 311 311 310 309 308 307 306 304 303 303 301 303 305 305 304 304 305 305 305 304 304 304 305 305 306 305 305 305 305 305 305 304 304 304 305 305 305 304 305 305 305 305 304 303 303 303 303 303 303 303 303 302 302 302 301 301 300 299 299 300
337 335 334 333 332 331 329 327 326 325 326 327 330 328 323 320 320 319 318 316 314 313 312 312 312 311 310 310 309 307 305 303 302 302 301 301 301 303 302 303 305 306 305 305 305 305 305 305 305 306 305 306 306 305 304 305 304 304 304 304 304 305 305 305 305 305 305 304 303 303 303 303 303 303 303 303 303 302 301 301 301 300 300 300 300
336 335 333 333 331 330 328 327 326 326 326 328 330 328 322 320 319 319 317 315 313 312 312 312 311 310 310 310 309 306 304 304 303 302 302 301 302 302 300 299 302 304 305 305 305 305 304 305 306 306 305 306 306 305 304 304 304 304 304 304 305 305 305 305 305 304 303 303 303 303 303 302 302 302 302 303 303 302 302 301 301 300 300 300 300
335 334 333 332 331 329 328 327 326 325 326 328 330 327 322 319 319 318 317 315 313 312 311 311 310 310 310 309 309 307 305 304 304 303 303 302 302 301 299 296 297 299 300 303 304 304 305 306 306 305 305 305 305 305 304 304 304 304 304 304 305 305 305 304 304 303 302 303 304 304 303 302 302 302 302 303 303 302 302 301 300 300 301 300 300
335 334 333 331 330 329 328 327 326 325 325 327 329 326 321 319 319 318 316 314 312 311 311 310 310 310 310 309 309 308 308 306 304 305 304 302 301 300 298 298 298 298 297 299 301 301 303 306 306 306 305 305 304 305 305 303 303 303 304 305 305 304 304 303 303 303 304 304 305 305 304 303 302 302 302 302 302 302 302 301 301 301 301 300 300
335 334 332 330 329 329 328 327 325 324 325 327 328 326 321 319 319 317 315 313 312 311 311 310 311 310 309 309 309 309 309 307 305 305 306 304 302 301 300 301 302 301 300 299 300 300 301 303 305 306 305 305 304 305 305 304 303 304 304 304 303 303 303 303 304 304 304 304 304 305 305 303 301 302 302 302 301 301 302 302 302 301 300 300 301
334 334 332 329 328 328 327 326 325 324 324 327 329 326 321 318 317 316 314 313 312 311 311 311 311 310 309 309 309 309 310 308 306 305 306 305 303 302 302 303 303 303 303 302 301 301 301 302 303 305 305 304 304 304 303 303 302 303 303 303 303 303 304 305 304 304 303 302 303 304 304 302 301 302 301 301 301 301 302 302 302 301 301 301 302
334 332 331 329 328 327 326 325 324 323 323 326 328 325 321 318 315 313 313 313 312 311 311 311 310 310 310 308 308 309 310 308 306 305 305 304 304 303 303 304 304 304 305 304 302 300 300 300 301 303 304 303 302 300 300 299 299 300 301 302 303 304 304 304 303 303 303 302 303 304 303 302 301 301 301 301 301 301 302 302 302 301 302 302 302
334 332 330 329 328 326 325 324 324 323 324 325 326 325 321 317 314 313 313 312 311 311 311 311 310 310 309 308 308 309 309 308 306 304 304 303 304 303 303 304 304 303 304 306 304 301 300 299 298 299 300 301 300 299 299 299 298 298 299 301 302 303 303 303 303 303 302 303 304 304 302 301 301 301 301 301 301 301 301 301 301 302 302 302 302
333 331 330 329 328 326 325 324 324 324 324 325 325 324 322 317 313 313 313 312 311 311 311 311 310 309 309 308 308 308 308 307 305 304 303 302 302 303 303 303 303 302 302 306 306 303 302 301 299 299 299 299 299 299 299 299 298 298 298 300 301 302 303 303 303 303 303 303 305 304 301 301 301 301 301 301 301 301 301 301 301 302 302 302 302
Wind_Speed
13 13 12 12 11 11 11 11 10 10 10 10 9 9 9 8 8 8 8 7 7 7 7 7 6 5 6 6 6 6 7 7 7 8 8 9 9 7 7 7 6 6 5 3 3 4 5 7 8 8 8 8 8 8 8 8 9 8 8 9 9 9 10 13 13 12 12 12 12 11 13 14 12 12 11 13 14 13 13 13 13 13 14 14 14
13 13 12 12 11 11 10 10 10 9 10 9 8 8 8 8 8 8 8 7 7 8 7 7 6 6 6 7 7 7 7 7 7 7 8 8 9 9 7 6 6 5 4 4 5 6 7 8 9 9 9 9 9 8 9 9 9 9 9 9 9 8 8 12 13 13 12 12 12 11 12 13 12 11 11 12 13 12 12 12 12 13 13 13 14
13 13 12 12 11 11 10 10 10 10 10 9 8 8 7 8 7 7 7 7 7 7 7 6 6 6 6 7 7 7 7 7 7 7 7 8 8 9 7 5 5 4 4 5 6 8 9 10 10 10 9 9 9 9 9 8 8 9 10 10 10 9 8 10 12 12 12 11 11 11 11 12 12 11 11 10 12 11 11 11 11 12 12 12 13
13 13 12 11 11 11 10 10 10 10 10 8 8 8 7 7 7 7 7 7 7 7 7 6 6 6 6 7 7 7 8 8 9 7 6 7 6 6 7 6 4 3 4 5 7 9 10 10 10 9 9 9 9 8 8 8 7 7 8 10 10 10 8 7 9 9 9 9 10 10 10 11 12 12 12 10 10 11 10 11 10 11 12 11 12
14 13 11 11 11 11 10 10 10 10 10 9 9 8 7 8 8 7 7 7 7 7 7 6 6 6 7 7 7 8 8 9 9 7 5 5 5 5 5 7 6 5 6 7 8 10 10 10 9 9 9 8 8 7 7 7 7 6 6 8 9 8 7 7 7 7 7 8 8 9 9 10 10 11 11 11 10 10 10 11 10 10 11 11 11
13 12 12 11 11 11 10 10 11 11 10 10 10 9 9 9 8 8 8 8 8 8 8 7 7 7 7 7 7 8 8 9 8 6 5 5 5 5 4 5 5 6 7 8 10 10 10 10 9 9 8 7 7 6 6 6 6 6 6 6 6 6 6 6 6 7 6 7 7 8 9 9 9 10 10 10 10 10 9 10 11 10 10 10 11
13 13 13 12 12 12 11 11 10 11 10 10 10 9 9 9 9 8 8 8 8 8 8 7 8 8 8 8 8 8 7 8 7 6 5 5 5 5 4 4 4 6 7 8 9 9 10 9 8 8 7 6 5 5 5 5 5 5 5 5 5 5 5 5 5 6 7 7 7 8 8 9 10 10 10 10 10 11 10 10 11 11 10 10 10
14 13 13 13 13 12 12 11 9 9 10 10 10 9 9 8 9 9 9 8 8 9 8 8 8 9 8 8 8 9 7 7 7 5 5 5 5 4 4 4 4 6 6 7 8 9 10 9 8 8 6 5 5 5 4 4 4 4 5 4 4 4 5 5 5 6 7 8 8 8 8 9 10 10 10 10 10 11 12 11 11 11 11 10 10
14 13 13 13 12 11 11 10 9 9 9 10 10 9 9 9 9 9 9 8 9 9 8 8 9 9 9 8 9 9 8 7 6 4 4 4 4 4 4 4 5 6 6 6 7 8 9 10 9 8 7 6 5 4 4 4 4 4 4 4 4 4 5 5 5 6 7 7 8 9 9 10 11 11 11 11 11 12 13 12 12 12 11 10 10
15 14 14 13 11 11 10 9 10 10 9 10 10 9 9 9 9 9 9 8 9 9 9 9 10 9 9 8 8 8 8 7 6 4 4 4 4 4 4 5 5 6 6 6 7 7 8 8 8 7 7 7 5 4 4 4 3 3 3 3 4 4 5 5 6 7 7 7 9 9 9 10 11 12 12 12 12 13 13 13 13 12 11 11 12
15 15 14 12 11 11 10 10 10 10 10 10 10 10 10 10 9 9 9 8 8 9 9 10 10 9 9 8 7 7 7 6 5 5 4 5 5 5 4 5 5 5 6 6 6 7 7 7 6 6 6 6 6 5 4 5 4 3 2 2 4 5 5 6 6 7 7 8 9 10 10 10 12 13 13 13 13 14 14 14 13 12 11 12 13
15 15 14 13 12 11 10 10 10 11 11 11 10 10 11 11 10 10 10 9 8 9 10 11 11 9 9 7 7 7 7 6 5 5 5 5 5 5 5 5 6 6 6 6 6 6 7 7 6 6 6 5 5 5 4 5 4 3 2 2 3 5 6 6 6 7 8 9 10 10 10 11 13 14 14 14 14 15 14 14 13 13 12 13 14
15 15 15 13 12 12 11 10 11 11 11 11 11 10 11 12 11 11 11 10 9 10 11 12 11 10 8 6 6 7 7 6 5 6 6 6 5 5 5 5 6 6 6 6 6 7 7 7 6 6 5 4 3 2 1 1 1 1 1 2 3 5 6 6 6 7 8 9 10 11 12 13 15 15 15 15 15 15 15 14 14 14 14 14 15
16 15 15 14 13 12 11 11 11 11 11 11 11 11 12 12 11 11 11 10 10 11 13 13 11 10 9 7 6 7 7 7 7 7 7 7 6 6 6 6 6 7 6 6 6 6 7 7 6 5 5 4 3 2 1 1 1 3 3 3 4 5 5 6 6 7 9 10 12 13 14 15 16 16 15 15 15 15 14 14 14 14 15 15 15
16 15 15 15 14 13 12 11 12 11 11 11 12 12 13 13 13 12 11 11 10 12 15 13 9 9 10 7 5 6 6 9 10 10 10 8 7 7 7 7 7 7 7 6 7 6 6 7 6 6 5 3 3 2 2 3 3 5 5 4 6 6 5 6 6 8 9 11 13 14 15 15 15 15 15 15 14 14 14 14 15 15 15 15 15
16 16 15 15 15 13 12 11 12 12 12 12 13 14 14 13 14 13 12 11 10 11 14 13 10 9 8 4 4 5 5 8 12 11 11 10 9 8 7 7 8 8 7 6 7 7 7 7 7 6 5 4 3 3 3 3 4 5 5 6 7 7 7 6 7 9 11 13 14 15 15 15 15 14 14 14 14 14 14 14 15 15 15 16 16
17 17 16 16 16 14 12 12 13 13 13 13 13 14 14 14 15 14 13 12 11 11 12 12 12 10 8 4 3 4 4 6 10 9 10 11 10 10 9 8 9 8 7 7 7 7 7 8 7 7 6 5 4 4 3 3 3 2 2 6 9 10 10 9 10 12 13 14 14 14 14 14 14 14 14 14 13 14 14 15 15 16 16 16 16
18 18 17 16 16 15 14 13 14 14 14 14 13 14 14 15 15 14 14 13 12 11 12 12 12 11 11 8 5 4 2 5 5 4 9 11 11 11 11 10 10 9 9 8 8 8 8 9 9 8 7 6 5 4 4 3 3 2 3 7 11 11 12 12 13 15 15 15 14 13 14 14 14 14 13 13 13 14 15 15 15 16 16 16 16
19 19 18 17 16 15 15 14 14 14 14 14 13 14 14 14 15 14 14 14 13 12 12 12 12 12 12 11 9 7 5 4 4 3 5 8 10 12 12 12 11 11 10 9 9 9 8 9 9 9 8 6 6 5 4 4 3 3 5 8 10 11 13 15 15 16 16 15 14 13 14 14 13 13 13 13 13 14 15 15 16 16 16 17 17
21 19 19 18 16 16 16 16 15 14 14 14 14 14 14 14 15 15 14 14 14 13 12 12 12 12 12 12 11 10 10 10 10 9 5 4 8 11 12 12 12 12 11 10 10 10 9 9 9 8 8 7 6 5 4 3 2 1 5 9 10 11 13 15 17 17 17 15 14 14 13 13 13 13 13 13 14 15 15 15 16 16 17 17 18
22 20 19 19 17 16 16 16 15 15 15 14 14 15 15 15 15 16 15 14 14 14 12 12 12 12 11 12 12 11 12 12 12 11 9 7 4 7 10 11 11 12 12 10 10 10 10 10 9 8 7 6 6 5 4 3 2 2 7 11 11 12 13 15 17 17 16 16 15 15 14 13 13 14 13 14 14 15 15 15 16 16 17 18 18
22 21 20 20 18 17 17 17 16 16 15 15 14 15 16 17 16 16 16 15 14 14 13 13 13 12 11 12 12 12 12 11 11 11 11 10 6 6 10 12 9 11 13 12 11 10 10 10 9 8 8 6 6 5 4 3 3 4 9 11 11 12 14 14 16 16 16 16 15 15 15 13 13 14 14 14 15 15 15 15 16 16 17 18 19
23 22 21 20 19 19 18 17 17 17 16 15 15 15 16 17 16 16 16 15 14 13 14 14 13 13 13 14 13 12 12 11 11 11 10 10 7 7 9 10 9 10 13 13 12 12 11 10 10 9 8 6 5 5 3 4 6 8 10 11 11 12 13 14 15 15 15 15 15 15 15 14 14 14 14 15 16 15 15 15 16 17 18 19 20
24 23 22 21 21 20 19 18 17 17 17 16 15 15 15 15 15 14 14 13 13 13 13 14 14 14 14 15 14 13 14 14 12 11 11 10 9 8 9 8 7 7 11 12 12 12 11 10 10 9 8 7 5 5 3 3 6 9 8 9 12 12 13 14 14 14 14 14 14 14 14 15 15 15 16 16 16 16 16 16 17 18 20 21 23
26 25 23 21 21 21 21 19 17 17 17 16 15 15 14 13 13 13 12 13 13 14 14 14 14 15 14 14 14 14 15 15 14 13 11 11 11 11 10 6 6 6 9 12 12 11 11 10 10 9 8 7 6 5 4 3 6 9 7 7 11 12 12 13 13 13 13 14 14 14 14 15 15 16 16 16 16 16 16 17 18 20 22 23 23
25 26 24 22 23 22 20 19 18 17 17 17 16 15 14 13 12 12 13 13 14 14 16 14 14 15 14 14 14 14 15 14 14 13 12 12 12 11 9 6 7 7 8 11 11 11 10 10 10 8 7 7 5 5 4 3 6 10 9 6 8 12 12 13 13 13 13 13 13 13 14 14 15 16 16 16 16 16 17 18 19 20 21 22 22
23 24 24 24 24 22 20 20 19 18 18 18 16 15 15 13 12 12 12 13 13 14 15 14 14 14 15 15 14 14 14 14 14 14 13 14 13 12 10 7 6 7 7 9 10 11 10 9 9 8 8 7 5 5 5 3 6 9 9 4 6 11 13 13 13 12 12 12 12 13 14 14 15 15 15 16 16 16 17 18 19 19 20 21 22
23 24 24 25 25 23 20 21 20 19 19 18 17 16 15 14 13 12 12 11 12 13 13 13 14 15 15 16 15 14 14 15 15 14 14 14 12 11 11 10 7 5 6 7 8 9 10 10 9 8 8 7 6 6 4 3 6 7 6 3 4 7 11 13 12 11 11 11 12 13 13 14 14 14 15 15 16 16 17 17 18 18 19 20 21
23 24 25 26 26 24 22 21 20 19 19 18 17 16 15 14 13 12 12 11 11 12 12 12 13 13 14 15 14 14 13 14 13 13 12 12 11 11 11 12 10 6 5 5 6 8 10 11 8 8 9 7 6 6 3 3 7 6 4 4 4 5 10 13 10 9 9 10 11 12 12 12 13 13 14 15 16 16 16 17 17 18 19 19 21
24 25 26 26 26 25 23 22 20 19 19 19 18 17 15 14 13 12 11 11 11 11 11 11 11 11 12 12 13 12 11 11 10 9 10 10 11 11 11 12 11 9 7 5 5 7 9 10 8 6 8 7 6 5 3 5 7 6 3 4 4 5 10 9 7 8 9 9 11 11 11 11 11 12 13 15 15 15 16 16 17 17 18 19 20
25 26 26 25 26 25 23 22 21 20 20 20 18 17 16 14 13 12 12 12 11 11 11 11 11 11 11 11 12 10 9 8 8 8 8 9 10 11 11 11 10 10 9 7 5 6 7 9 8 6 7 7 6 4 4 5 6 6 3 4 5 7 8 5 6 10 10 9 11 10 10 10 11 12 13 15 15 15 15 16 17 17 18 19 21
27 27 26 26 26 25 24 22 22 21 21 20 18 17 16 15 14 13 12 12 12 11 11 11 11 11 11 12 11 10 8 8 7 7 8 8 9 10 10 10 10 9 9 9 6 5 6 7 8 7 7 6 5 5 4 4 5 5 3 4 5 7 6 5 7 8 10 10 10 10 10 10 11 12 14 15 15 15 15 16 17 17 19 21 23
29 27 25 25 25 25 24 23 22 22 21 20 19 18 17 15 14 13 12 13 12 11 11 12 12 12 12 12 11 9 8 8 8 7 8 8 9 9 9 9 10 10 10 11 7 6 7 7 7 7 7 6 5 5 4 3 3 4 4 4 5 5 4 4 5 6 10 11 10 10 10 9 11 12 13 15 15 15 15 16 17 18 20 22 24
29 27 25 24 24 24 24 23 22 22 21 21 20 20 18 16 15 14 13 13 13 12 12 12 12 12 12 11 11 9 9 9 8 7 7 7 8 8 8 9 9 10 10 10 8 7 8 8 8 7 7 7 6 5 4 4 4 4 5 4 4 4 4 4 3 4 9 11 10 10 10 10 11 12 14 15 15 16 16 16 18 19 21 23 24
28 26 25 24 24 24 23 23 23 22 21 21 22 21 19 17 17 16 14 13 13 13 12 13 13 13 12 12 11 10 10 9 9 8 7 7 7 7 8 8 8 8 9 8 7 6 8 9 9 8 7 7 6 5 4 4 4 4 5 4 4 4 3 4 3 4 7 10 9 9 10 10 11 12 14 15 16 16 16 17 18 20 21 23 24
27 26 24 24 25 25 24 23 23 22 22 21 23 22 20 19 18 16 14 13 13 14 13 14 14 14 14 13 12 12 11 11 10 9 8 8 7 7 7 6 6 5 5 6 6 6 7 9 9 8 7 7 6 5 4 4 4 4 4 4 4 4 3 4 4 4 6 10 11 11 11 12 12 13 14 15 15 16 17 18 19 20 21 23 25
27 26 25 24 25 25 25 24 23 23 23 23 23 22 20 20 18 15 15 14 14 14 14 15 15 15 15 14 13 13 13 12 11 10 9 9 7 7 7 6 6 6 5 6 6 6 7 8 8 7 7 6 6 5 4 4 4 5 4 4 4 4 4 5 5 6 7 10 11 12 13 13 14 15 15 15 15 16 18 18 18 20 22 24 27
27 26 26 25 25 25 25 25 24 23 23 23 24 23 23 22 19 16 15 15 14 15 15 15 16 15 15 14 14 14 14 13 12 11 10 10 8 8 8 8 9 9 8 8 7 7 7 8 8 8 7 7 6 5 4 3 4 4 4 5 5 4 4 5 5 6 7 8 10 12 13 13 15 16 18 17 16 18 21 20 20 21 22 26 28
27 27 27 26 25 26 25 24 24 24 23 23 23 24 24 22 19 17 16 16 15 15 15 15 15 15 15 14 14 15 15 14 13 12 11 10 9 9 9 10 12 13 11 9 8 8 8 8 8 7 7 7 6 5 4 3 4 5 4 5 5 4 5 6 6 6 6 8 11 13 14 15 15 17 18 18 16 19 22 23 21 20 22 26 29
28 28 28 27 26 26 24 25 25 23 24 24 24 26 25 22 20 18 17 17 16 16 15 15 15 15 15 14 14 15 15 14 14 13 12 11 10 10 10 11 12 12 10 9 9 9 8 8 7 7 7 7 6 5 4 4 5 5 3 4 6 6 7 8 7 6 7 9 12 13 14 15 15 15 16 16 16 18 22 22 19 19 22 26 28
28 27 28 27 27 26 24 25 25 24 26 28 29 29 26 21 20 19 17 17 17 16 16 15 15 15 15 14 14 15 16 16 16 14 14 13 11 11 11 12 13 12 11 10 10 9 8 8 7 7 7 6 6 5 5 5 4 3 2 4 7 7 8 9 9 7 7 10 13 15 15 14 14 15 15 15 16 18 19 19 18 21 25 26 28
27 26 27 27 27 28 26 25 25 27 31 33 32 32 29 24 21 18 17 17 17 16 16 16 16 15 15 14 14 17 18 18 17 15 14 14 13 11 12 13 13 12 11 11 10 9 9 8 7 7 7 6 6 5 5 4 3 3 3 5 6 8 9 9 9 7 6 9 14 16 15 15 15 16 15 16 17 18 19 20 21 25 27 26 28
27 25 27 27 27 28 27 26 28 32 35 35 32 32 32 28 23 19 17 17 17 17 17 17 16 16 16 14 14 18 20 17 16 15 13 13 14 13 14 15 14 13 11 10 10 9 8 8 7 7 7 6 6 6 5 5 4 4 4 5 6 7 8 9 10 8 6 9 15 16 16 16 16 16 17 17 17 17 20 22 24 27 28 28 29
29 26 27 26 26 28 28 27 31 35 36 36 34 33 33 31 25 20 18 18 18 18 18 17 17 16 17 15 15 17 18 17 17 16 15 14 14 14 15 16 17 16 14 12 10 9 8 7 7 7 6 6 6 6 6 5 4 4 4 5 6 7 8 9 10 11 11 12 14 16 17 17 16 17 18 18 17 18 21 23 24 27 28 29 31
29 26 26 26 26 29 30 30 32 35 36 36 35 34 34 33 28 22 19 19 20 19 19 19 18 18 18 17 16 16 17 19 18 16 16 16 15 15 15 16 18 17 16 14 13 11 9 6 7 7 6 6 6 6 6 4 4 4 5 6 6 6 8 10 11 14 15 14 13 15 17 17 17 19 19 18 18 19 21 24 25 26 27 30 31
29 27 26 26 26 29 32 32 32 33 35 37 36 35 35 34 30 24 20 20 21 20 20 20 19 19 19 18 17 16 17 20 19 17 17 17 17 17 16 16 16 16 17 16 15 15 12 8 6 7 7 6 6 5 5 5 5 5 5 6 6 7 10 12 15 17 16 14 12 14 16 17 18 20 20 19 20 21 22 24 24 24 26 30 32
28 27 26 26 29 32 33 34 32 31 34 37 36 36 36 34 31 26 20 20 21 20 21 21 20 20 20 19 18 17 18 19 20 18 18 17 17 17 16 15 14 14 15 15 14 15 13 9 6 5 6 7 7 5 5 5 5 5 5 6 7 9 12 13 15 15 12 12 11 11 15 18 19 20 20 21 21 22 22 22 22 24 28 31 31
26 24 24 26 30 34 35 36 34 31 33 38 38 37 37 35 33 27 20 20 21 20 20 21 20 20 20 20 19 18 18 19 21 21 19 17 16 17 16 15 14 12 12 14 15 15 13 12 10 8 9 11 11 10 9 7 6 5 5 7 9 10 11 12 13 11 11 13 11 9 14 19 19 20 22 23 22 22 22 21 22 26 29 29 28
26 25 24 23 27 30 32 36 36 33 34 38 39 38 38 37 35 27 20 19 20 19 19 20 19 19 20 21 20 18 18 19 22 24 22 18 16 16 16 15 14 12 12 13 16 16 15 14 15 14 13 13 13 13 12 10 10 8 7 8 8 9 9 11 12 11 13 14 9 6 14 20 19 20 22 23 22 22 21 21 24 27 27 26 26
28 26 24 22 23 25 28 33 35 36 36 38 40 39 38 39 36 28 21 20 20 18 18 18 18 19 20 22 22 19 18 20 22 25 25 20 16 16 16 15 14 13 12 12 14 16 15 14 15 16 17 15 14 14 13 12 12 12 11 10 9 9 10 11 11 12 14 12 6 7 15 20 20 20 21 22 22 21 20 22 25 26 25 24 25
26 24 24 24 24 23 26 30 34 36 37 39 41 40 40 41 38 28 21 20 20 19 19 19 18 18 19 23 25 20 18 20 22 24 25 21 16 15 16 15 14 14 13 12 12 13 14 14 14 15 17 16 15 14 13 14 14 14 14 12 11 11 11 11 12 11 12 9 6 10 16 19 19 20 21 19 18 18 20 24 25 24 23 24 26
Wind_Direction
174 173 173 172 172 170 170 172 177 179 181 185 185 186 188 190 192 195 201 200 189 184 187 189 186 177 162 156 154 154 149 144 141 129 122 111 105 126 141 132 130 127 125 122 94 78 80 92 102 102 99 97 97 93 91 91 90 88 89 86 78 71 56 55 60 57 54 50 47 41 33 39 41 38 32 21 27 30 21 24 24 21 21 18 19
174 172 170 170 170 170 170 171 173 174 177 183 184 183 187 191 194 198 201 202 194 187 190 192 182 167 158 160 159 156 153 148 142 131 122 113 111 126 140 140 134 130 119 108 102 100 101 104 107 105 102 102 100 95 92 93 92 86 82 84 81 75 59 52 56 56 54 48 45 42 34 35 35 33 28 17 19 22 17 20 19 15 16 13 14
173 170 168 168 169 170 170 168 171 173 176 181 183 185 191 194 195 199 201 201 196 190 192 188 174 167 166 165 161 157 155 144 133 128 122 117 115 118 127 134 133 129 119 117 116 116 116 115 113 109 106 106 103 99 97 94 92 85 75 73 76 73 62 49 48 50 50 46 42 38 33 32 31 29 27 15 9 15 15 12 11 9 9 8 7
172 169 167 167 168 169 169 170 171 174 179 181 183 187 196 198 197 200 200 199 195 188 186 182 176 178 177 170 165 160 152 142 138 135 126 120 119 117 118 120 120 125 127 126 122 122 124 122 119 116 112 110 106 101 98 94 89 86 74 64 64 66 63 52 44 43 43 40 34 30 26 23 23 23 23 17 4 8 11 6 5 3 3 4 2
170 168 165 165 166 168 170 172 172 174 179 181 185 191 196 200 199 196 196 194 188 179 179 184 182 180 179 173 167 161 150 146 149 145 133 125 124 126 127 120 112 118 129 128 123 124 126 124 123 123 120 114 109 104 97 92 87 84 76 59 55 57 56 50 40 34 31 29 27 22 17 12 11 9 10 11 2 357 357 357 357 351 354 356 354
171 170 169 169 169 171 175 177 177 179 182 186 190 194 199 201 196 192 190 189 185 181 183 184 178 173 173 173 165 161 154 149 149 141 133 128 127 129 134 130 123 126 131 134 133 131 129 129 129 127 123 118 111 106 98 91 87 81 76 62 53 49 43 41 32 24 18 12 13 10 7 3 359 355 353 355 355 352 344 344 347 342 342 345 348
178 177 177 176 177 180 183 184 184 184 187 192 195 199 203 200 195 189 185 188 187 184 186 180 172 169 168 168 163 161 156 147 145 140 132 131 133 131 132 139 143 141 138 141 143 140 138 136 136 134 128 122 109 100 95 89 87 78 72 62 51 45 36 29 20 17 14 6 1 358 357 355 350 346 342 339 341 344 338 331 336 338 333 335 339
183 183 184 184 185 185 185 184 185 187 192 195 197 201 201 197 194 188 183 186 187 185 183 173 167 166 165 166 166 162 154 148 146 140 133 132 133 131 134 141 150 154 150 147 146 148 149 145 142 141 136 129 113 97 92 86 86 77 67 57 44 39 30 23 15 8 5 4 360 353 350 348 344 340 336 333 329 331 332 324 323 328 327 328 330
187 189 191 190 190 187 183 183 183 189 194 194 198 199 195 192 190 189 185 182 185 185 173 162 162 162 163 168 167 160 155 152 150 144 143 142 139 137 140 143 150 157 161 159 154 155 162 165 161 156 156 152 129 99 86 79 75 69 63 52 37 28 17 10 7 1 357 358 357 350 343 341 342 338 334 332 327 324 326 322 318 318 318 321 322
190 195 197 194 192 186 181 184 186 191 195 196 199 198 193 188 185 188 186 181 186 185 168 157 159 158 162 171 164 155 156 156 155 156 158 155 151 148 146 147 154 160 165 169 164 160 169 180 178 171 174 166 144 124 104 98 83 62 55 42 29 15 8 359 354 355 354 353 351 344 338 337 339 336 332 329 326 323 322 320 318 314 309 313 317
193 197 199 195 193 188 183 186 189 192 196 198 199 195 193 188 184 185 183 181 184 181 168 155 154 158 164 165 156 151 157 162 165 170 172 166 159 156 156 154 158 164 167 169 170 167 167 175 177 172 175 175 168 170 164 147 123 76 38 20 16 3 356 350 347 350 349 348 346 341 335 334 335 333 329 325 324 322 321 319 317 314 307 308 313
195 197 198 194 194 191 186 189 191 194 197 200 199 194 194 191 187 185 182 178 173 171 165 154 148 151 156 154 153 160 168 174 179 181 181 178 172 166 164 163 164 168 169 166 166 168 169 172 176 167 161 171 173 165 160 160 146 96 41 357 360 355 346 341 343 346 345 344 343 339 332 331 331 329 325 322 321 320 320 320 317 314 309 308 310
196 198 198 195 195 193 189 192 196 200 201 202 201 196 194 191 186 186 186 182 172 167 162 156 152 151 152 146 157 180 190 193 194 196 195 190 188 183 174 174 175 170 167 164 159 161 165 169 173 168 165 169 169 155 114 112 157 106 19 344 342 348 342 337 338 340 341 339 337 334 328 326 327 326 323 321 320 320 321 320 318 314 310 309 308
195 200 201 197 196 196 194 196 201 204 206 206 202 196 194 189 184 186 190 190 182 171 166 168 169 167 165 159 170 198 210 216 217 208 206 205 199 193 185 185 185 176 170 166 164 166 167 170 171 170 174 178 179 205 269 281 269 316 336 333 334 344 342 338 336 336 338 335 332 330 325 324 325 325 323 322 322 322 322 321 320 318 314 311 308
196 200 205 202 199 198 197 200 204 206 208 205 200 197 196 191 189 189 188 189 186 178 178 187 192 175 170 179 190 200 210 214 218 216 210 211 207 200 197 196 193 182 177 176 175 177 175 173 174 174 181 193 202 225 232 221 264 314 328 315 318 328 330 335 336 332 333 331 328 327 325 324 325 325 325 325 325 324 322 322 322 320 318 315 312
201 202 206 206 203 200 198 201 205 208 210 205 200 200 197 192 194 194 189 189 187 184 190 202 204 183 182 201 186 202 234 201 195 206 207 210 212 206 203 203 201 188 185 192 186 185 186 180 180 182 190 203 219 241 238 238 281 312 317 308 314 319 318 320 324 326 329 329 328 327 326 326 326 327 327 327 326 324 323 323 323 322 320 319 317
205 203 205 208 206 201 200 201 205 207 210 208 203 203 200 195 196 197 196 196 192 188 193 204 210 207 213 227 183 220 267 168 170 192 199 209 214 207 209 208 205 199 198 204 194 191 192 187 188 191 199 210 223 240 241 245 281 316 310 309 315 316 314 314 318 324 330 331 330 329 328 328 329 329 329 329 327 325 325 324 324 324 323 322 321
206 204 205 209 207 204 203 204 205 206 209 208 204 203 202 198 197 200 203 205 201 195 196 200 210 220 225 240 255 279 299 146 160 182 185 206 213 205 211 210 209 208 206 210 202 196 196 193 196 199 204 213 220 235 235 232 255 265 266 292 306 311 314 318 324 329 334 335 333 330 329 330 330 330 331 330 328 326 326 325 325 325 324 324 324
207 206 207 209 208 207 207 207 207 207 208 207 204 203 202 199 199 202 205 207 206 204 204 199 204 219 223 234 250 263 268 229 244 253 179 200 208 204 209 207 209 213 212 214 206 198 197 199 202 202 207 211 214 229 230 222 244 278 282 292 304 311 315 322 330 334 336 337 335 331 331 331 331 331 332 330 328 327 326 326 326 326 326 326 325
207 207 208 209 207 209 210 209 209 209 207 206 205 203 201 199 201 205 207 208 208 210 211 201 205 217 216 225 237 243 250 248 257 269 262 230 200 196 205 204 205 210 214 218 209 198 197 203 207 203 205 206 211 223 222 222 216 242 287 300 310 314 318 324 332 335 335 337 336 334 332 331 330 331 331 329 328 327 326 327 327 328 328 327 326
206 207 209 208 207 210 212 210 210 209 207 206 204 203 202 200 203 207 209 212 212 215 218 211 215 221 212 218 230 233 239 243 250 257 262 266 218 187 194 194 202 209 209 213 206 196 197 203 208 204 202 204 212 221 220 226 190 202 279 301 314 318 322 327 331 333 332 334 336 335 334 332 330 331 330 328 327 327 328 328 329 329 328 327 326
203 208 210 208 208 211 211 211 211 209 207 206 203 202 204 204 207 210 212 216 218 220 226 224 223 225 220 222 226 228 234 238 241 243 247 253 252 223 191 184 204 206 199 205 202 198 201 202 205 208 208 208 213 218 213 210 204 237 282 303 317 321 325 329 330 329 329 332 333 333 334 333 329 330 329 327 328 329 329 330 330 329 328 327 326
202 207 211 209 209 211 211 211 211 209 208 206 202 201 204 206 210 214 216 222 224 224 230 233 232 229 226 226 227 228 232 234 235 235 237 239 249 251 213 205 226 206 191 199 200 200 204 201 206 209 207 213 215 214 206 214 246 273 295 309 319 323 327 330 329 326 328 331 330 329 331 330 328 329 327 326 327 328 329 330 329 327 326 326 325
202 207 211 209 210 212 212 211 210 210 208 205 203 201 203 207 211 216 220 226 231 231 232 232 234 233 228 228 230 232 234 237 239 234 235 239 243 254 248 239 236 196 179 188 194 200 203 199 205 206 207 217 213 209 208 211 259 289 309 311 316 325 329 330 329 328 331 331 328 328 329 328 328 327 325 325 326 326 327 327 326 325 325 324 324
203 207 210 208 210 212 211 209 208 209 207 205 204 201 202 206 212 219 224 228 230 231 231 229 228 229 230 230 232 235 235 236 241 239 236 240 242 251 259 245 218 191 175 186 194 196 200 200 202 203 207 214 206 207 216 206 253 287 311 305 304 321 331 332 332 332 333 331 328 328 327 326 326 325 324 324 324 324 325 325 324 324 324 325 326
205 208 209 208 210 211 211 208 206 206 206 204 202 200 203 208 215 221 225 228 228 226 227 226 225 227 228 230 231 234 236 235 238 239 234 235 241 248 250 229 216 210 190 195 197 191 197 200 201 204 202 207 207 203 211 205 244 282 315 313 292 308 325 334 334 333 333 330 327 326 325 325 325 324 323 323 323 324 323 322 322 323 325 326 327
208 209 208 207 208 210 209 206 204 204 204 202 199 200 204 208 216 221 222 224 222 220 221 221 222 223 224 228 231 233 235 234 233 234 233 235 240 242 236 219 213 209 204 207 200 199 203 191 194 204 198 203 206 200 216 222 242 288 327 334 286 299 316 330 333 331 331 328 325 323 323 324 324 323 322 322 321 321 321 322 324 326 328 329 329
210 210 207 207 207 207 206 205 205 203 202 200 198 200 203 206 212 215 212 211 211 212 215 218 220 222 223 226 229 232 233 232 230 231 233 235 237 235 227 219 220 213 207 211 207 207 197 179 189 199 197 205 201 209 240 230 242 296 333 313 284 295 310 324 329 329 333 328 322 322 323 324 323 322 321 320 320 320 322 325 328 329 330 330 330
208 208 206 206 207 204 202 203 203 201 200 200 200 201 201 201 204 206 203 202 204 206 210 215 218 219 221 223 225 230 230 227 226 226 227 229 230 230 225 223 230 229 216 213 213 208 190 187 201 195 195 209 197 208 241 217 241 285 307 280 285 290 306 323 332 337 339 330 325 324 326 326 322 322 321 319 321 323 327 329 329 330 330 330 332
205 206 204 204 204 203 201 201 201 199 199 199 199 199 197 196 199 201 198 197 200 205 209 213 214 213 215 216 217 221 220 217 217 216 217 221 223 226 228 227 230 233 238 238 213 196 187 197 212 193 187 200 195 204 216 217 254 291 291 270 283 297 310 326 345 353 346 332 331 329 328 329 324 323 323 322 325 327 328 329 328 329 330 331 332
203 205 203 201 201 199 200 200 198 197 198 198 196 194 193 192 193 196 195 195 200 205 207 208 209 209 208 207 208 209 205 201 203 205 209 215 217 222 227 227 230 232 238 252 229 180 174 190 200 187 178 184 193 214 216 220 261 300 287 258 284 314 323 315 321 349 351 334 335 334 330 331 327 327 327 325 327 327 326 327 327 328 329 330 331
202 205 201 198 196 194 194 196 195 195 196 196 194 192 192 191 192 196 196 197 202 206 205 203 202 203 202 201 202 200 194 192 197 201 206 213 217 222 226 224 227 226 227 244 240 160 153 176 178 178 181 184 202 224 222 224 261 297 287 263 291 319 330 290 284 329 348 340 337 339 336 334 330 329 328 326 326 325 325 326 327 327 327 328 328
200 202 197 193 193 191 191 193 192 192 193 194 193 192 192 192 192 197 196 197 203 204 201 199 197 197 196 197 196 191 189 191 196 201 203 210 213 218 223 218 219 218 214 229 229 155 143 164 169 175 185 190 210 223 226 235 255 286 284 276 293 305 317 303 276 306 340 345 344 344 344 340 335 331 327 325 324 323 324 326 327 327 326 325 324
199 198 195 191 191 191 191 192 191 191 191 192 194 193 192 192 191 194 195 197 201 200 197 194 192 191 190 192 190 184 185 190 194 198 196 198 202 207 213 211 213 213 208 219 222 177 158 169 175 178 183 197 215 215 219 238 254 279 281 277 293 297 301 312 291 298 331 344 348 350 352 345 338 332 326 326 324 323 324 325 326 327 325 323 321
198 197 194 191 191 189 190 191 190 190 190 191 195 196 193 191 192 194 194 196 199 197 195 193 189 186 186 188 187 180 181 186 189 191 187 187 193 196 199 203 207 207 204 216 223 192 168 169 178 182 182 197 216 212 212 237 255 276 282 272 281 291 288 297 297 302 330 350 358 356 355 349 341 335 329 327 326 323 323 324 326 327 325 323 323
197 194 192 191 191 189 190 191 188 189 188 190 196 197 194 194 194 193 193 195 198 197 195 192 188 186 186 187 185 182 182 185 185 185 183 182 186 186 183 188 190 180 180 206 224 201 172 168 177 184 180 187 205 213 219 240 250 261 276 276 273 279 282 288 288 291 327 354 3 357 355 356 350 344 337 331 330 329 326 325 327 328 328 329 329
194 189 188 190 191 189 190 190 188 188 188 191 195 193 194 197 195 192 193 194 196 196 194 191 188 186 187 186 184 183 182 184 184 184 183 181 179 177 174 168 154 139 156 194 206 193 177 171 170 172 178 188 199 207 220 249 260 258 262 269 270 274 282 289 281 281 310 335 344 341 343 345 342 342 342 339 337 337 335 331 329 332 334 335 334
192 185 187 190 190 191 191 190 189 188 189 193 194 192 197 199 194 190 191 192 193 194 191 189 188 187 187 186 184 183 183 183 183 181 178 176 173 169 164 154 144 149 176 196 190 182 181 175 168 172 185 192 197 207 216 242 270 276 280 279 269 267 284 295 290 287 301 314 319 322 324 324 324 330 335 336 335 337 339 337 333 335 336 335 333
191 184 187 189 190 192 191 189 190 190 190 190 191 194 197 196 191 188 189 189 190 191 189 188 188 187 186 186 184 184 185 184 182 178 174 173 173 168 160 154 157 168 184 189 179 179 181 175 175 181 187 190 200 212 206 215 255 263 278 293 286 283 298 303 301 301 308 315 317 319 321 320 322 325 327 329 332 333 335 335 334 335 335 334 333
192 185 186 188 190 192 190 189 190 189 188 187 190 196 196 191 189 188 187 187 187 187 188 187 187 185 185 185 185 185 186 184 180 176 174 172 170 169 166 164 169 177 184 183 179 182 183 183 187 187 185 190 199 206 205 219 242 242 250 296 299 298 303 303 299 298 310 325 327 325 323 323 323 324 323 327 332 331 330 332 332 332 332 332 334
194 186 185 187 189 189 187 189 189 188 191 194 197 199 195 187 188 188 186 187 185 184 185 185 185 184 184 184 186 186 186 184 182 178 179 179 172 172 176 175 176 182 185 184 185 186 187 190 192 190 192 198 197 202 212 221 242 257 262 285 290 294 301 302 297 292 300 320 327 325 323 322 319 319 322 327 332 331 330 331 332 333 333 333 336
194 185 183 186 188 188 187 185 186 192 199 202 204 205 199 191 188 186 185 185 184 183 183 184 184 183 184 183 185 189 189 188 188 186 188 187 177 176 181 179 181 186 186 186 189 189 189 194 195 195 200 203 199 206 218 225 239 258 265 276 288 299 304 303 305 305 298 313 322 320 320 322 319 317 320 324 327 330 333 331 329 331 334 334 336
195 185 182 184 185 187 185 184 190 199 204 205 207 208 204 197 188 183 183 183 183 184 184 184 183 182 183 181 182 191 193 192 190 190 191 189 184 184 187 183 183 186 187 189 189 188 192 198 197 200 207 204 197 206 219 222 225 234 257 276 287 300 309 310 314 318 320 323 322 317 317 322 320 316 318 320 322 327 330 327 324 327 329 332 334
196 187 182 183 184 186 186 187 196 203 206 207 208 208 205 200 192 184 182 181 182 184 185 186 184 182 182 180 180 187 190 189 187 188 190 191 191 193 193 191 191 189 187 188 185 183 196 208 202 202 210 206 198 210 219 220 227 238 254 268 277 294 305 308 310 314 319 320 316 314 317 320 319 318 317 317 320 322 325 326 324 323 324 328 331
194 188 183 182 184 188 191 194 200 204 206 207 208 206 204 202 196 189 183 181 182 183 185 186 185 183 181 178 178 180 185 188 187 186 190 192 194 195 193 195 200 199 195 192 186 182 190 210 214 208 208 207 205 211 214 213 233 249 257 270 282 294 302 307 309 309 310 308 304 309 315 318 321 320 317 318 321 320 322 325 323 321 323 326 328
192 190 185 182 185 191 195 198 200 202 205 208 207 206 204 202 198 193 185 183 184 184 185 186 185 183 181 179 178 179 183 188 187 185 187 190 193 194 190 191 200 206 204 200 197 193 191 197 215 214 207 208 213 215 205 206 229 248 265 284 297 302 302 301 298 295 295 297 297 301 309 318 324 320 317 321 323 320 320 322 321 324 325 325 326
192 192 187 184 190 196 198 199 200 200 204 208 207 205 204 202 198 193 186 184 186 185 185 185 184 183 182 181 181 182 182 186 189 188 186 185 186 187 187 188 194 202 207 206 207 206 201 203 216 219 211 208 209 208 200 206 228 248 268 284 290 291 290 291 291 291 294 304 303 295 304 318 324 320 318 322 323 320 321 321 322 326 325 322 322
191 192 191 189 194 200 200 201 200 199 204 209 208 205 204 201 197 192 185 184 186 185 184 184 182 182 182 182 184 186 185 187 191 190 185 182 182 182 184 189 192 196 204 210 213 210 205 206 208 210 213 209 206 208 210 216 227 246 272 279 277 278 282 291 299 304 309 313 310 299 308 318 324 322 319 322 323 321 321 323 325 326 325 322 322
190 191 194 191 192 195 198 200 201 199 203 210 209 204 202 200 195 189 183 184 186 185 185 185 182 182 183 184 185 187 187 189 195 195 189 184 183 184 185 188 191 195 201 213 221 218 212 210 208 211 217 218 218 223 227 233 238 246 263 273 281 289 293 299 307 313 315 315 318 326 320 319 323 323 321 321 322 321 321 325 327 327 326 326 326
191 191 193 194 191 190 192 197 200 199 204 210 208 203 202 200 194 187 183 185 185 184 185 185 185 185 185 186 187 187 187 193 201 201 196 192 189 189 189 187 190 197 200 208 218 219 218 219 218 220 225 229 231 231 233 240 243 245 251 261 281 295 296 300 306 311 311 313 334 350 328 321 322 325 323 321 322 322 324 327 328 328 330 331 332
189 188 192 197 195 190 191 197 200 200 204 209 207 203 201 199 194 188 185 184 183 184 185 184 185 187 185 187 190 187 188 198 204 202 200 199 193 191 191 189 192 200 202 202 204 207 211 215 221 226 228 232 235 234 237 244 245 246 248 252 269 282 287 297 303 307 309 314 345 350 331 321 321 323 325 325 322 322 327 330 329 330 333 334 334